Location: La Oliva
(42.2466°N, 2.9955°E)
Time: 10:50:06
(UTC+00:00)

Cosmos 2297 Rocket - Pass Details

Date: 22 April 2021
Orbit: 838 x 844 km, 71.0° (Epoch: 10 May)

Event Time Altitude Azimuth Distance (km) Brightness Sun altitude
Rises 20:39:01 0° 217° (SW) 3,379 5.3 -20.4°
Reaches altitude 10° 20:41:31 10° 223° (SW) 2,450 4.6 -20.8°
Maximum altitude 20:46:59 52° 299° (WNW) 1,042 3.0 -21.5°
Drops below altitude 10° 20:52:31 10° 15° (NNE) 2,469 5.0 -22.3°
Sets 20:55:03 0° 21° (NNE) 3,408 5.7 -22.6°
